Geneva, Switzerland

4:14 PM CEST on August 24, 2016 (GMT +0200)
Geneva

Weather History for 06700 - October, 2013

Change the Weather History Date:

Tuesday, October 1, 2013

  Actual Average Record
Temperature  
Mean Temperature 62 °F -  
Max Temperature 66 °F 57 °F - ()
Min Temperature 57 °F 42 °F - ()
Degree Days  
Heating Degree Days 4    
Growing Degree Days 12 (Base 50)    
Moisture  
Dew Point 58 °F    
Average Humidity 87    
Maximum Humidity 100    
Minimum Humidity 55    
Precipitation  
Precipitation 0.00 in 0.10 in - ()
Sea Level Pressure  
Sea Level Pressure 29.82 in    
Wind  
Wind Speed 2 mph ()    
Max Wind Speed 6 mph    
Max Gust Speed -    
Visibility 5.8 miles    
Events Fog , Rain    
T = Trace of Precipitation, MM = Missing Value Source: Averaged Metar Reports

Daily Weather History Graph

Daily Weather History Graph

Search for Another Location

Airport or City:

Trip Planner

Search our weather history database for the weather conditions in past years. The results will help you decide how hot, cold, wet, or windy it might be!

Date:

Astronomy

Oct. 01, 2013 Rise Set
Actual Time 7:33 AM CEST 7:15 PM CEST
Civil Twilight 7:04 AM CEST 7:45 PM CEST
Nautical Twilight 6:29 AM CEST 8:20 PM CEST
Astronomical Twilight 5:53 AM CEST 8:55 PM CEST
Moon 3:42 AM CEST (10/1) 5:19 PM CEST (10/1)
Length of Visible Light 12h 41m
Length of Day
11h 41m
Waning Crescent, 14% of the Moon is Illuminated
Oct 1
Waning Crescent
Oct 5
New
Oct 12
First Quarter
Oct 19
Full
Oct 27
Last Quarter

Hourly Weather History & Observations

Time (CEST) Temp. Dew Point Humidity Pressure Visibility Wind Dir Wind Speed Gust Speed Precip Events Conditions
12:00 AM 61 °F 60 °F 93% 29.77 in - South 1.2 mph - -  
12:20 AM 60.8 °F 60.8 °F 100% 29.80 in 5.6 mi Calm Calm - N/A Rain Light Rain Showers
12:50 AM 60.8 °F 60.8 °F 100% 29.80 in 6.2 mi Calm Calm - N/A   Mostly Cloudy
1:00 AM 60 °F 59 °F 95% 29.77 in - NE 2.3 mph - -  
1:20 AM 59.0 °F 59.0 °F 100% 29.80 in 5.6 mi Calm Calm - N/A Fog Shallow Fog
1:50 AM 59.0 °F 59.0 °F 100% 29.80 in 4.3 mi Variable 2.3 mph - N/A   Mostly Cloudy
2:00 AM 60 °F 59 °F 94% 29.77 in 4 mi North 2.3 mph - -   Mist
2:20 AM 59.0 °F 59.0 °F 100% 29.80 in 6.2 mi Variable 1.2 mph - N/A   Mostly Cloudy
2:50 AM 59.0 °F 59.0 °F 100% 29.80 in 4.3 mi Variable 2.3 mph - N/A   Mostly Cloudy
3:00 AM 60 °F 59 °F 94% 29.78 in - North 2.3 mph - -  
3:50 AM 59.0 °F 59.0 °F 100% 29.77 in 5.0 mi Calm Calm - N/A   Light Drizzle
4:00 AM 60 °F 58 °F 92% 29.77 in - North 1.2 mph - -  
4:20 AM 59.0 °F 59.0 °F 100% 29.77 in 4.3 mi Calm Calm - N/A   Mostly Cloudy
4:50 AM 59.0 °F 59.0 °F 100% 29.80 in 5.0 mi Calm Calm - N/A   Mostly Cloudy
5:20 AM 59.0 °F 59.0 °F 100% 29.80 in 4.3 mi Calm Calm - N/A   Mostly Cloudy
5:50 AM 59.0 °F 59.0 °F 100% 29.80 in 3.7 mi Variable 1.2 mph - N/A   Mostly Cloudy
6:00 AM 60 °F 58 °F 91% 29.78 in - WSW 2.3 mph - -  
6:20 AM 59.0 °F 59.0 °F 100% 29.80 in 6.2 mi WSW 2.3 mph - N/A   Overcast
6:50 AM 59.0 °F 59.0 °F 100% 29.80 in 6.2 mi SW 3.5 mph - N/A   Mostly Cloudy
7:00 AM 59 °F 57 °F 91% 29.78 in - SW 4.6 mph - -  
7:20 AM 59.0 °F 59.0 °F 100% 29.80 in 4.3 mi SW 5.8 mph - N/A   Mostly Cloudy
7:50 AM 57.2 °F 57.2 °F 100% 29.80 in 4.3 mi SW 2.3 mph - N/A   Mostly Cloudy
8:20 AM 57.2 °F 57.2 °F 100% 29.80 in 3.7 mi WSW 3.5 mph - N/A   Mostly Cloudy
8:50 AM 59.0 °F 57.2 °F 94% 29.83 in 4.3 mi WSW 4.6 mph - N/A   Mostly Cloudy
9:00 AM 59 °F 56 °F 88% 29.81 in - West 3.5 mph - -  
9:20 AM 59.0 °F 59.0 °F 100% 29.83 in 5.6 mi Variable 3.5 mph - N/A   Mostly Cloudy
9:50 AM 62.6 °F 59.0 °F 88% 29.83 in 6.2 mi South 3.5 mph - N/A   Mostly Cloudy
10:00 AM 60 °F 57 °F 85% 29.81 in - SW 3.5 mph - -  
10:20 AM 62.6 °F 59.0 °F 88% 29.83 in 6.2 mi Variable 2.3 mph - N/A   Mostly Cloudy
10:50 AM 62.6 °F 57.2 °F 82% 29.83 in 6.2 mi Variable 2.3 mph - N/A   Mostly Cloudy
11:20 AM 64.4 °F 57.2 °F 77% 29.83 in 6.2 mi Variable 1.2 mph - N/A   Mostly Cloudy
11:50 AM 64.4 °F 59.0 °F 83% 29.83 in 6.2 mi Variable 1.2 mph - N/A   Mostly Cloudy
12:00 PM 63 °F 56 °F 72% 29.80 in - NNE 1.2 mph - -  
12:20 PM 64.4 °F 59.0 °F 83% 29.83 in 6.2 mi Variable 2.3 mph - N/A   Mostly Cloudy
12:50 PM 66.2 °F 57.2 °F 73% 29.83 in 6.2 mi Variable 2.3 mph - N/A   Mostly Cloudy
1:00 PM 65 °F 58 °F 70% 29.80 in - ESE 4.6 mph - -  
1:20 PM 68.0 °F 59.0 °F 73% 29.83 in 6.2 mi Variable 2.3 mph - N/A   Mostly Cloudy
1:50 PM 68.0 °F 59.0 °F 73% 29.83 in 6.2 mi ENE 5.8 mph - N/A   Mostly Cloudy
2:00 PM 66 °F 55 °F 60% 29.79 in 14 mi ENE 5.8 mph - -   Scattered Clouds
2:20 PM 68.0 °F 55.4 °F 64% 29.80 in 6.2 mi Variable 3.5 mph - N/A   Mostly Cloudy
2:50 PM 68.0 °F 53.6 °F 60% 29.80 in 6.2 mi Variable 3.5 mph - N/A   Mostly Cloudy
3:00 PM 67 °F 54 °F 55% 29.77 in - NNE 3.5 mph - -  
3:20 PM 68.0 °F 57.2 °F 68% 29.80 in 6.2 mi Variable 1.2 mph - N/A   Mostly Cloudy
3:50 PM 68.0 °F 57.2 °F 68% 29.80 in 6.2 mi East 4.6 mph - N/A   Mostly Cloudy
4:00 PM 66 °F 57 °F 64% 29.78 in - ENE 4.6 mph - -  
4:20 PM 68.0 °F 59.0 °F 73% 29.80 in 6.2 mi East 4.6 mph - N/A   Mostly Cloudy
4:50 PM 66.2 °F 59.0 °F 78% 29.83 in 6.2 mi East 4.6 mph - N/A   Mostly Cloudy
5:20 PM 66.2 °F 57.2 °F 73% 29.83 in 6.2 mi ENE 3.5 mph - N/A   Mostly Cloudy
5:50 PM 66.2 °F 57.2 °F 73% 29.83 in 6.2 mi North 2.3 mph - N/A   Mostly Cloudy
6:00 PM 65 °F 57 °F 69% 29.80 in - North 3.5 mph - -  
6:20 PM 66.2 °F 59.0 °F 78% 29.83 in 6.2 mi Variable 1.2 mph - N/A   Overcast
6:50 PM 64.4 °F 59.0 °F 83% 29.83 in 6.2 mi NE 2.3 mph - N/A   Overcast
7:00 PM 64 °F 58 °F 75% 29.81 in - NNE 2.3 mph - -  
7:20 PM 62.6 °F 59.0 °F 88% 29.83 in 6.2 mi NE 1.2 mph - N/A   Mostly Cloudy
7:50 PM 62.6 °F 59.0 °F 88% 29.86 in 6.2 mi Calm Calm - N/A   Mostly Cloudy
8:00 PM 61 °F 57 °F 83% 29.84 in 11 mi NNW 2.3 mph - -   Scattered Clouds
8:20 PM 60.8 °F 59.0 °F 94% 29.86 in - Calm Calm - N/A   Clear
8:50 PM 59.0 °F 59.0 °F 100% 29.86 in - Variable 2.3 mph - N/A   Clear
9:00 PM 59 °F 57 °F 91% 29.86 in - North 1.2 mph - -  
9:20 PM 59.0 °F 57.2 °F 94% 29.89 in 6.2 mi Variable 2.3 mph - N/A   Scattered Clouds
9:50 PM 57.2 °F 57.2 °F 100% 29.89 in 6.2 mi Variable 3.5 mph - N/A   Scattered Clouds
10:00 PM 59 °F 56 °F 88% 29.87 in - NE 3.5 mph - -  
10:20 PM 59.0 °F 59.0 °F 100% 29.89 in 6.2 mi Variable 2.3 mph - N/A   Scattered Clouds
10:50 PM 57.2 °F 57.2 °F 100% 29.89 in 5.0 mi Variable 2.3 mph - N/A   Scattered Clouds
11:20 PM 59.0 °F 57.2 °F 94% 29.89 in 3.7 mi Variable 1.2 mph - N/A   Scattered Clouds
11:50 PM 59.0 °F 57.2 °F 94% 29.89 in 4.3 mi Calm Calm - N/A   Mostly Cloudy